Regional Weather Roundup
Issued by NWS

Home | Current Version | Previous Version | Graphics & Text | Print | Product List | Glossary On
Versions: 1 2 3 4 5 6 7 8 9 10 11 12 13 14 15 16 17 18 19 20 21 22 23 24 25 26 27
000
ASUS45 KCYS 152010
RWRWY

WYOMING REGIONAL WEATHER ROUNDUP
NATIONAL WEATHER SERVICE CHEYENNE WY
100 PM MST FRI DEC 15 2017

NOTE:  "FAIR" INDICATES FEW OR NO CLOUDS BELOW 12,000 FEET
WITH NO SIGNIFICANT WEATHER AND/OR OBSTRUCTIONS TO VISIBILITY.

WYZ001-152100-
YELLOWSTONE NATIONAL PARK

CITY           SKY/WX    TMP DP  RH WIND       PRES   REMARKS
LK YELLOWSTONE   N/A     23  20  88 CALM      30.13F
W YELLOWSTONE  NOT AVBL

$$
WYZ002>013-054>058-071-098>099-152100-
NORTHERN WYOMING

CITY           SKY/WX    TMP DP  RH WIND       PRES   REMARKS
JACKSON        FAIR      27  16  63 CALM      30.16F
CODY           FAIR      31  21  66 W5        29.88F WCI  26
GREYBULL       FAIR      40  16  37 SE6       29.89F
WORLAND        FAIR      39  23  52 N6        29.88F WCI  35
SHERIDAN       FAIR      46  23  40 NE3       29.75F
BUFFALO        FAIR      59   5  11 SE6       29.78F
GILLETTE       FAIR      51  18  27 SW17      29.77F
HULETT         FAIR      45  19  36 SW13      29.77F
NEWCASTLE      FAIR      43  18  36 NW5       29.82F

$$
WYZ014>020-022>026-101>103-152100-
CENTRAL WYOMING

CITY           SKY/WX    TMP DP  RH WIND       PRES   REMARKS
BIG PINEY      FAIR      37  14  38 CALM      30.11F
PINEDALE       FAIR      37  18  44 NW9       30.11F WCI  31
DUBOIS         FAIR      43   5  21 N28G44    29.96F
LANDER         FAIR      30  19  63 N3        29.92F
RIVERTON       FAIR      32  19  58 NE5       29.94F WCI  27
CASPER         FAIR      40  19  43 SW29G37   29.92F WCI  29
DOUGLAS        FAIR      56  17  21 W21G26    29.85F

$$
WYZ021-027>030-104>119-152100-
SOUTHERN WYOMING

CITY           SKY/WX    TMP DP  RH WIND       PRES   REMARKS
EVANSTON       FAIR      40  10  29 SW17      30.16F WCI  31
FORT BRIDGER   FAIR      48  -3  12 W26G32    30.16F
ROCK SPRINGS   FAIR      41   6  23 SW31G39   30.12F
DIXON          FAIR      39  13  33 SW9G17    30.20F WCI  33
RAWLINS        FAIR      36  18  48 S14G22    30.08F WCI  27
SARATOGA       FAIR      37  18  44 SE8       30.11F WCI  31
LARAMIE        FAIR      38  18  44 SW23      30.01F WCI  27
CHEYENNE       FAIR      51  13  21 W25G33    29.92F
TORRINGTON     FAIR      55  16  21 W18G30    29.85F
PINE BLUFFS    FAIR      54  14  20 W24G31    29.90F

$$




USA.gov is the U.S. government's official web portal to all federal, state and local government web resources and services.